• In Russia
  • List of Countries
  • For 7 days
  • Water Temperature
  • Satellite Maps
  • Weather Map
  • Weather Widgets
  • user-avatar
    Login

    Hourly Weather Ondjiwa

    Today, 22 January, Tuesday

    Time Temperature Precipitation Wind Pressure Humidity
    00:00 +24°C° 1.4 mm 2 mps 667 mmHg 84%
    01:00 +24°C° 1.4 mm 2 mps 667 mmHg 85%
    02:00 +24°C° 2.5 mm 1 mps 667 mmHg 86%
    03:00 +24°C° 2.5 mm 1 mps 667 mmHg 87%
    04:00 +23°C° 2.5 mm 1 mps 667 mmHg 88%
    05:00 +24°C° 0.1 mm 1 mps 667 mmHg 85%
    06:00 +24°C° 0.1 mm 1 mps 668 mmHg 82%
    07:00 +25°C° 0.1 mm 1 mps 668 mmHg 78%
    08:00 +27°C° 0.1 mm 1 mps 668 mmHg 69%
    09:00 +29°C° 0.1 mm 1 mps 669 mmHg 59%
    10:00 +31°C° 0.1 mm 1 mps 670 mmHg 49%
    11:00 +31°C° 0 mm 1 mps 669 mmHg 47%
    12:00 +32°C° 0 mm 1 mps 669 mmHg 44%
    13:00 +32°C° 0 mm 1 mps 668 mmHg 41%
    14:00 +32°C° 0 mm 1 mps 668 mmHg 42%
    15:00 +32°C° 0 mm 1 mps 667 mmHg 43%
    16:00 +32°C° 0 mm 1 mps 667 mmHg 44%
    17:00 +30°C° 1.5 mm 1 mps 666 mmHg 54%
    18:00 +28°C° 1.5 mm 2 mps 666 mmHg 64%
    19:00 +26°C° 1.5 mm 3 mps 665 mmHg 74%
    20:00 +26°C° 1.3 mm 3 mps 666 mmHg 76%
    21:00 +25°C° 1.3 mm 2 mps 666 mmHg 78%
    22:00 +25°C° 1.3 mm 2 mps 667 mmHg 80%
    23:00 +25°C° 1.2 mm 1 mps 667 mmHg 80%

    Tomorrow, 23 January, Wednesday

    Time Temperature Precipitation Wind Pressure Humidity
    00:00 +25°C° 1.2 mm 1 mps 667 mmHg 80%
    01:00 +25°C° 1.2 mm 1 mps 667 mmHg 80%
    02:00 +24°C° 3 mm 2 mps 667 mmHg 80%
    03:00 +23°C° 3 mm 2 mps 666 mmHg 80%
    04:00 +22°C° 3 mm 3 mps 666 mmHg 80%
    05:00 +23°C° 0.1 mm 2 mps 666 mmHg 76%
    06:00 +24°C° 0.1 mm 2 mps 667 mmHg 73%
    07:00 +24°C° 0.1 mm 2 mps 667 mmHg 69%
    08:00 +26°C° 0 mm 2 mps 667 mmHg 58%
    09:00 +28°C° 0 mm 2 mps 668 mmHg 48%
    10:00 +30°C° 0 mm 3 mps 668 mmHg 37%
    11:00 +31°C° 0 mm 2 mps 668 mmHg 35%
    12:00 +32°C° 0 mm 2 mps 667 mmHg 32%
    13:00 +35°C° 0 mm 2 mps 667 mmHg 29%
    14:00 +35°C° 0 mm 2 mps 666 mmHg 29%
    15:00 +35°C° 0 mm 2 mps 666 mmHg 28%
    16:00 +35°C° 0 mm 2 mps 665 mmHg 27%
    17:00 +32°C° 0 mm 1 mps 665 mmHg 30%
    18:00 +31°C° 0 mm 1 mps 665 mmHg 33%
    19:00 +29°C° 0 mm 1 mps 665 mmHg 37%
    20:00 +29°C° 0 mm 1 mps 665 mmHg 38%
    21:00 +28°C° 0 mm 2 mps 666 mmHg 39%
    22:00 +28°C° 0 mm 2 mps 666 mmHg 40%
    23:00 +27°C° 0 mm 2 mps 666 mmHg 43%

    Day after tomorrow, 24 January, Thursday

    Time Temperature Precipitation Wind Pressure Humidity
    00:00 +27°C° 0 mm 3 mps 666 mmHg 45%
    01:00 +26°C° 0 mm 3 mps 666 mmHg 48%
    02:00 +25°C° 0 mm 3 mps 666 mmHg 48%
    03:00 +24°C° 0 mm 2 mps 665 mmHg 48%
    04:00 +24°C° 0 mm 2 mps 665 mmHg 48%
    05:00 +24°C° 0 mm 2 mps 665 mmHg 47%
    06:00 +24°C° 0 mm 2 mps 666 mmHg 47%
    07:00 +24°C° 0 mm 1 mps 666 mmHg 47%
    08:00 +26°C° 0 mm 2 mps 667 mmHg 38%
    09:00 +29°C° 0 mm 2 mps 667 mmHg 29%
    10:00 +31°C° 0 mm 3 mps 668 mmHg 20%
    11:00 +34°C° 0 mm 2 mps 667 mmHg 19%
    12:00 +35°C° 0 mm 2 mps 667 mmHg 18%
    13:00 +36°C° 0 mm 1 mps 667 mmHg 17%
    14:00 +36°C° 0 mm 1 mps 666 mmHg 17%
    15:00 +36°C° 0 mm 1 mps 665 mmHg 17%
    16:00 +37°C° 0 mm 2 mps 665 mmHg 17%
    17:00 +34°C° 0 mm 1 mps 664 mmHg 20%
    18:00 +32°C° 0 mm 1 mps 664 mmHg 23%
    19:00 +31°C° 0 mm 1 mps 664 mmHg 26%
    20:00 +30°C° 0 mm 1 mps 664 mmHg 28%
    21:00 +29°C° 0 mm 1 mps 665 mmHg 31%
    22:00 +28°C° 0 mm 2 mps 665 mmHg 33%
    23:00 +28°C° 0 mm 2 mps 665 mmHg 35%

    25 January, Friday

    Time Temperature Precipitation Wind Pressure Humidity
    00:00 +27°C° 0 mm 2 mps 665 mmHg 38%
    01:00 +26°C° 0 mm 2 mps 665 mmHg 41%
    02:00 +26°C° 0 mm 2 mps 665 mmHg 42%
    03:00 +26°C° 0 mm 2 mps 665 mmHg 43%
    04:00 +25°C° 0 mm 1 mps 665 mmHg 44%
    05:00 +25°C° 0 mm 2 mps 666 mmHg 45%
    06:00 +25°C° 0 mm 2 mps 666 mmHg 47%
    07:00 +25°C° 0 mm 2 mps 667 mmHg 48%
    08:00 +27°C° 0 mm 2 mps 667 mmHg 43%
    09:00 +30°C° 0 mm 1 mps 668 mmHg 37%
    10:00 +32°C° 0 mm 1 mps 669 mmHg 32%
    11:00 +34°C° 0 mm 1 mps 668 mmHg 29%
    12:00 +36°C° 0 mm 1 mps 668 mmHg 26%
    13:00 +37°C° 0 mm 1 mps 668 mmHg 23%
    14:00 +37°C° 0 mm 1 mps 667 mmHg 22%
    15:00 +37°C° 0 mm 1 mps 667 mmHg 20%
    16:00 +38°C° 0 mm 2 mps 666 mmHg 19%
    17:00 +35°C° 0 mm 1 mps 666 mmHg 22%
    18:00 +34°C° 0 mm 1 mps 666 mmHg 26%
    19:00 +32°C° 0 mm 1 mps 666 mmHg 29%
    20:00 +31°C° 0 mm 1 mps 666 mmHg 33%
    21:00 +30°C° 0 mm 1 mps 666 mmHg 36%
    22:00 +29°C° 0 mm 1 mps 667 mmHg 40%
    23:00 +28°C° 0 mm 1 mps 666 mmHg 41%

    26 January, Saturday

    Time Temperature Precipitation Wind Pressure Humidity
    00:00 +28°C° 0 mm 1 mps 666 mmHg 42%
    01:00 +28°C° 0 mm 1 mps 666 mmHg 43%
    02:00 +27°C° 0 mm 2 mps 666 mmHg 44%
    03:00 +27°C° 0 mm 2 mps 666 mmHg 46%
    04:00 +26°C° 0 mm 2 mps 666 mmHg 47%
    05:00 +26°C° 0 mm 3 mps 666 mmHg 48%
    06:00 +26°C° 0 mm 3 mps 667 mmHg 49%
    07:00 +26°C° 0 mm 3 mps 668 mmHg 50%
    08:00 +26°C° 0 mm 3 mps 668 mmHg 52%
    09:00 +26°C° 0 mm 3 mps 668 mmHg 53%
    10:00 +26°C° 0 mm 3 mps 668 mmHg 55%
    11:00 +28°C° 0 mm 3 mps 668 mmHg 48%
    12:00 +31°C° 0 mm 2 mps 668 mmHg 41%
    13:00 +35°C° 0 mm 2 mps 668 mmHg 34%
    14:00 +35°C° 0 mm 2 mps 668 mmHg 33%
    15:00 +35°C° 0 mm 1 mps 667 mmHg 31%
    16:00 +35°C° 0 mm 1 mps 667 mmHg 30%
    17:00 +33°C° 0 mm 1 mps 666 mmHg 34%
    18:00 +31°C° 0 mm 1 mps 666 mmHg 37%
    19:00 +30°C° 0 mm 1 mps 666 mmHg 41%
    20:00 +29°C° 0.1 mm 2 mps 667 mmHg 46%
    21:00 +28°C° 0.1 mm 3 mps 667 mmHg 52%
    22:00 +28°C° 0.1 mm 4 mps 667 mmHg 57%
    23:00 +27°C° 0.1 mm 4 mps 667 mmHg 55%

    27 January, Sunday

    Time Temperature Precipitation Wind Pressure Humidity
    00:00 +27°C° 0.1 mm 4 mps 667 mmHg 54%
    01:00 +27°C° 0.1 mm 4 mps 667 mmHg 52%
    02:00 +27°C° 0 mm 3 mps 667 mmHg 53%
    03:00 +26°C° 0 mm 3 mps 667 mmHg 53%
    04:00 +26°C° 0 mm 2 mps 666 mmHg 54%
    05:00 +26°C° 0 mm 2 mps 667 mmHg 57%
    06:00 +26°C° 0 mm 2 mps 667 mmHg 60%
    07:00 +26°C° 0 mm 1 mps 667 mmHg 63%
    08:00 +27°C° 0 mm 1 mps 667 mmHg 58%
    09:00 +29°C° 0 mm 2 mps 668 mmHg 52%
    10:00 +30°C° 0 mm 2 mps 668 mmHg 47%
    11:00 +32°C° 0 mm 1 mps 668 mmHg 42%
    12:00 +34°C° 0 mm 1 mps 668 mmHg 36%
    13:00 +37°C° 0 mm 1 mps 667 mmHg 31%
    14:00 +36°C° 0 mm 1 mps 667 mmHg 32%
    15:00 +36°C° 0 mm 2 mps 666 mmHg 33%
    16:00 +35°C° 0 mm 2 mps 665 mmHg 34%
    17:00 +34°C° 0 mm 2 mps 665 mmHg 37%
    18:00 +32°C° 0 mm 2 mps 665 mmHg 40%
    19:00 +31°C° 0 mm 2 mps 665 mmHg 44%
    20:00 +30°C° 0 mm 2 mps 665 mmHg 46%
    21:00 +29°C° 0 mm 2 mps 666 mmHg 49%
    22:00 +28°C° 0 mm 2 mps 666 mmHg 52%
    23:00 +28°C° 0 mm 2 mps 666 mmHg 53%
    Show more